Total_Precipitation_Accumulation
0.00 0.00 0.00 0.00 0.00 0.00 0.00 0.00 0.01 0.01 0.00 0.00 0.00 0.00 0.00 0.00 0.00 0.00 0.00 0.00 0.00 0.01 0.01 0.01 0.01 0.02 0.02 0.01 0.01 0.00 0.00 0.00 0.00 0.00 0.01 0.01 0.01 0.01 0.02 0.02 0.09 0.11 0.01
0.00 0.00 0.00 0.00 0.00 0.00 0.00 0.00 0.01 0.01 0.00 0.00 0.00 0.00 0.00 0.00 0.00 0.00 0.00 0.00 0.00 0.01 0.01 0.00 0.01 0.01 0.01 0.01 0.00 0.00 0.00 0.00 0.00 0.00 0.00 0.00 0.00 0.00 0.00 0.01 0.07 0.12 0.01
0.00 0.00 0.00 0.00 0.00 0.00 0.00 0.00 0.00 0.00 0.00 0.00 0.00 0.00 0.00 0.00 0.00 0.00 0.00 0.00 0.00 0.00 0.00 0.00 0.00 0.00 0.00 0.00 0.00 0.00 0.00 0.00 0.00 0.00 0.00 0.02 0.01 0.00 0.00 0.00 0.01 0.01 0.00
0.00 0.00 0.00 0.00 0.00 0.00 0.00 0.00 0.00 0.00 0.00 0.00 0.00 0.00 0.00 0.00 0.00 0.00 0.00 0.00 0.00 0.00 0.00 0.00 0.00 0.00 0.00 0.00 0.00 0.00 0.00 0.00 0.00 0.00 0.02 0.22 0.17 0.02 0.01 0.00 0.00 0.00 0.00
0.00 0.00 0.00 0.00 0.00 0.00 0.00 0.00 0.00 0.00 0.00 0.00 0.00 0.00 0.00 0.00 0.00 0.00 0.00 0.00 0.00 0.00 0.00 0.00 0.00 0.00 0.00 0.00 0.00 0.00 0.00 0.00 0.00 0.00 0.03 0.18 0.18 0.08 0.02 0.00 0.00 0.00 0.00
0.00 0.00 0.00 0.00 0.00 0.00 0.00 0.00 0.00 0.00 0.00 0.00 0.00 0.00 0.00 0.00 0.00 0.00 0.00 0.00 0.00 0.00 0.00 0.00 0.00 0.00 0.00 0.00 0.00 0.00 0.00 0.00 0.00 0.00 0.00 0.03 0.07 0.10 0.04 0.02 0.00 0.00 0.00
0.00 0.00 0.00 0.00 0.00 0.00 0.00 0.00 0.00 0.00 0.00 0.00 0.00 0.00 0.00 0.00 0.00 0.00 0.00 0.00 0.00 0.00 0.00 0.00 0.01 0.01 0.02 0.02 0.02 0.02 0.01 0.00 0.00 0.00 0.00 0.01 0.03 0.06 0.06 0.03 0.01 0.00 0.00
0.00 0.00 0.00 0.00 0.00 0.00 0.00 0.00 0.00 0.00 0.00 0.00 0.00 0.00 0.00 0.00 0.00 0.00 0.00 0.00 0.00 0.00 0.00 0.00 0.00 0.00 0.01 0.02 0.03 0.04 0.04 0.02 0.01 0.01 0.00 0.02 0.13 0.11 0.13 0.08 0.04 0.03 0.03
0.00 0.00 0.00 0.00 0.00 0.00 0.00 0.00 0.00 0.00 0.00 0.00 0.00 0.00 0.00 0.00 0.00 0.00 0.00 0.00 0.00 0.00 0.00 0.00 0.00 0.00 0.00 0.01 0.02 0.02 0.03 0.02 0.00 0.02 0.01 0.01 0.11 0.15 0.19 0.12 0.07 0.08 0.10
0.00 0.00 0.00 0.00 0.00 0.00 0.00 0.00 0.00 0.00 0.00 0.00 0.00 0.00 0.00 0.00 0.00 0.00 0.00 0.01 0.01 0.01 0.01 0.01 0.00 0.01 0.01 0.03 0.05 0.07 0.08 0.03 0.00 0.00 0.00 0.01 0.07 0.19 0.24 0.16 0.09 0.10 0.14
0.00 0.00 0.00 0.00 0.00 0.00 0.00 0.00 0.00 0.00 0.00 0.01 0.00 0.00 0.00 0.00 0.02 0.04 0.07 0.08 0.08 0.08 0.08 0.07 0.06 0.06 0.06 0.04 0.11 0.17 0.11 0.01 0.00 0.00 0.00 0.02 0.08 0.23 0.23 0.17 0.13 0.11 0.12
0.00 0.00 0.00 0.00 0.00 0.00 0.00 0.00 0.00 0.00 0.00 0.01 0.02 0.06 0.08 0.08 0.06 0.07 0.17 0.17 0.23 0.28 0.22 0.19 0.25 0.21 0.11 0.07 0.17 0.30 0.16 0.07 0.03 0.02 0.02 0.03 0.08 0.24 0.29 0.20 0.16 0.14 0.11
0.00 0.00 0.00 0.00 0.00 0.00 0.00 0.00 0.00 0.00 0.01 0.02 0.06 0.13 0.21 0.20 0.18 0.18 0.32 0.40 0.37 0.30 0.18 0.27 0.38 0.27 0.19 0.17 0.14 0.19 0.24 0.19 0.11 0.09 0.11 0.11 0.15 0.30 0.35 0.22 0.20 0.18 0.09
0.00 0.00 0.01 0.00 0.00 0.00 0.00 0.00 0.00 0.00 0.01 0.02 0.07 0.19 0.28 0.27 0.19 0.25 0.37 0.30 0.23 0.19 0.25 0.24 0.28 0.21 0.18 0.16 0.16 0.20 0.28 0.28 0.22 0.22 0.29 0.33 0.28 0.31 0.33 0.26 0.23 0.18 0.11
0.02 0.03 0.03 0.01 0.01 0.01 0.02 0.03 0.03 0.04 0.04 0.05 0.10 0.27 0.35 0.31 0.32 0.33 0.30 0.23 0.15 0.24 0.36 0.31 0.22 0.18 0.20 0.24 0.29 0.36 0.36 0.27 0.22 0.19 0.21 0.35 0.32 0.28 0.31 0.31 0.31 0.24 0.21
0.12 0.17 0.16 0.10 0.06 0.06 0.09 0.14 0.19 0.21 0.23 0.25 0.24 0.27 0.36 0.39 0.39 0.38 0.38 0.31 0.30 0.35 0.38 0.26 0.18 0.19 0.20 0.23 0.19 0.18 0.20 0.22 0.21 0.15 0.12 0.18 0.27 0.24 0.25 0.30 0.33 0.30 0.30
0.42 0.56 0.61 0.49 0.37 0.33 0.34 0.30 0.27 0.26 0.27 0.27 0.30 0.25 0.26 0.34 0.31 0.36 0.36 0.33 0.37 0.34 0.29 0.21 0.15 0.14 0.14 0.13 0.08 0.05 0.04 0.06 0.06 0.06 0.05 0.05 0.11 0.21 0.23 0.27 0.29 0.27 0.28
1.04 1.33 1.44 1.30 1.01 0.65 0.43 0.30 0.22 0.19 0.21 0.17 0.16 0.14 0.10 0.12 0.13 0.17 0.19 0.22 0.21 0.21 0.21 0.15 0.10 0.07 0.06 0.05 0.03 0.02 0.01 0.02 0.04 0.03 0.03 0.02 0.03 0.09 0.25 0.34 0.35 0.30 0.29
2.33 2.74 2.55 1.97 1.41 0.83 0.45 0.24 0.18 0.14 0.13 0.09 0.07 0.05 0.03 0.02 0.02 0.06 0.08 0.10 0.10 0.12 0.13 0.09 0.06 0.05 0.03 0.03 0.02 0.02 0.02 0.02 0.03 0.03 0.03 0.04 0.04 0.05 0.08 0.16 0.27 0.28 0.32
3.08 3.64 3.43 2.64 1.73 1.08 0.69 0.43 0.22 0.11 0.06 0.03 0.02 0.02 0.01 0.00 0.00 0.01 0.02 0.02 0.02 0.02 0.03 0.05 0.06 0.06 0.04 0.04 0.03 0.02 0.03 0.02 0.02 0.06 0.06 0.03 0.03 0.04 0.06 0.06 0.13 0.19 0.27
2.53 2.93 2.89 2.20 1.53 1.05 0.63 0.30 0.15 0.08 0.03 0.01 0.01 0.00 0.00 0.00 0.00 0.00 0.00 0.00 0.00 0.00 0.00 0.00 0.01 0.02 0.02 0.03 0.04 0.02 0.02 0.02 0.03 0.06 0.06 0.02 0.04 0.11 0.15 0.11 0.12 0.23 0.29
1.63 1.72 1.34 0.99 0.74 0.52 0.33 0.20 0.12 0.06 0.03 0.01 0.01 0.00 0.00 0.00 0.00 0.00 0.00 0.00 0.00 0.00 0.00 0.00 0.00 0.00 0.00 0.00 0.01 0.01 0.00 0.00 0.01 0.03 0.06 0.07 0.08 0.15 0.19 0.18 0.20 0.24 0.24
1.02 0.89 0.59 0.42 0.39 0.31 0.22 0.12 0.08 0.05 0.02 0.01 0.01 0.01 0.01 0.00 0.00 0.00 0.00 0.00 0.00 0.00 0.00 0.00 0.00 0.01 0.00 0.00 0.00 0.01 0.01 0.00 0.00 0.02 0.06 0.09 0.11 0.14 0.14 0.17 0.18 0.18 0.22
0.47 0.46 0.48 0.46 0.33 0.22 0.17 0.09 0.05 0.03 0.02 0.01 0.02 0.01 0.01 0.01 0.00 0.00 0.00 0.00 0.00 0.00 0.00 0.00 0.00 0.01 0.01 0.01 0.01 0.01 0.02 0.03 0.04 0.03 0.05 0.11 0.14 0.13 0.12 0.12 0.11 0.14 0.19
0.28 0.45 0.65 0.61 0.39 0.24 0.18 0.13 0.12 0.10 0.09 0.06 0.05 0.04 0.03 0.02 0.02 0.01 0.00 0.00 0.00 0.00 0.00 0.00 0.00 0.01 0.02 0.02 0.03 0.03 0.03 0.04 0.08 0.09 0.05 0.07 0.13 0.08 0.06 0.05 0.04 0.07 0.11
0.26 0.33 0.41 0.48 0.54 0.48 0.42 0.31 0.27 0.24 0.20 0.15 0.13 0.11 0.09 0.07 0.06 0.03 0.01 0.01 0.01 0.00 0.00 0.00 0.01 0.02 0.03 0.04 0.06 0.06 0.05 0.04 0.05 0.10 0.10 0.09 0.08 0.03 0.04 0.07 0.08 0.11 0.15